Weather History for Cold Bay, AK

Change the Weather History Date:

Monday, November 11, 2013

  Actual Average Record
Temperature  
Mean Temperature 35 °F 35 °F  
Max Temperature 39 °F 40 °F 54 °F (2011)
Min Temperature 31 °F 31 °F 15 °F (1963)
Degree Days  
Heating Degree Days 30 30  
Month to date heating degree days 241 320  
Since 1 July heating degree days 1951 2433  
Cooling Degree Days 0    
Month to date cooling degree days 0  
Year to date cooling degree days 0  
Moisture  
Dew Point 26 °F    
Average Humidity 0    
Maximum Humidity 0    
Minimum Humidity 0    
Precipitation  
Precipitation 0.02 in 0.16 in 1.36 in (1982)
Month to date precipitation 3.27 1.74  
Year to date precipitation 40.89 33.97  
Snow  
Snow T in 0.40 in 2.20 in (1966)
Month to date snowfall T 2.9  
Since 1 July snowfall T 5.3  
Since 1 September snowfall 0.0 5.3  
Snow Depth T in    
Sea Level Pressure  
Sea Level Pressure 30.45 in    
Wind  
Wind Speed 18 mph (NW)    
Max Wind Speed 33 mph    
Max Gust Speed 40 mph    
Visibility 10 miles    
Events Snow    
T = Trace of Precipitation, MM = Missing Value Source: NWS Daily Summary

Daily Weather History Graph

Daily Weather History Graph

Search for Another Location

Airport:

Trip Planner

Search our weather history database for the weather conditions in past years. The results will help you decide how hot, cold, wet, or windy it might be!

Date:

Astronomy

Nov. 11, 2013 Rise Set
Actual Time 9:16 AM AKST 5:52 PM AKST
Civil Twilight 8:36 AM AKST 6:32 PM AKST
Nautical Twilight 7:51 AM AKST 7:17 PM AKST
Astronomical Twilight 7:09 AM AKST 7:59 PM AKST
Moon 3:32 PM AKST (11/11) 2:16 AM AKST (11/11)
Length of Visible Light 9h 56m
Length of Day
8h 35m
Waxing Gibbous, 68% of the Moon is Illuminated
Nov 11
Waxing Gibbous
Nov 17
Full
Nov 25
Last Quarter
Dec 2
New
Dec 9
First Quarter

Hourly Weather History & Observations

Time (AKST) Temp. Windchill Dew Point Humidity Pressure Visibility Wind Dir Wind Speed Gust Speed Precip Events Conditions
12:10 AM 35.6 °F 26.2 °F 32.0 °F 87% 30.29 in 9.0 mi WNW 15.0 mph - 0.00 in Snow Light Snow
12:53 AM 37.0 °F 26.2 °F 27.0 °F 67% 30.30 in 10.0 mi NW 21.9 mph - 0.01 in   Overcast
1:53 AM 37.0 °F 26.4 °F 27.0 °F 67% 30.32 in 10.0 mi NW 20.7 mph - N/A   Scattered Clouds
2:53 AM 37.4 °F 26.6 °F 26.6 °F 65% 30.35 in 10.0 mi NW 21.9 mph - N/A   Scattered Clouds
3:53 AM 36.0 °F 23.9 °F 26.1 °F 67% 30.39 in 10.0 mi NNW 25.3 mph 33.4 mph 0.00 in   Mostly Cloudy
4:53 AM 37.0 °F 26.7 °F 26.1 °F 65% 30.41 in 10.0 mi North 19.6 mph 28.8 mph 0.00 in   Overcast
5:53 AM 36.0 °F 24.7 °F 26.1 °F 67% 30.44 in 10.0 mi NNW 21.9 mph 27.6 mph 0.00 in   Mostly Cloudy
6:53 AM 37.0 °F 26.4 °F 21.9 °F 54% 30.46 in 10.0 mi NW 20.7 mph 34.5 mph N/A   Mostly Cloudy
7:53 AM 35.1 °F 23.3 °F 28.0 °F 76% 30.47 in 9.0 mi WNW 23.0 mph - 0.00 in Snow Light Snow
8:53 AM 35.1 °F 25.5 °F 27.0 °F 72% 30.48 in 10.0 mi NNW 15.0 mph 25.3 mph 0.01 in   Mostly Cloudy
9:53 AM 36.0 °F 25.6 °F 24.1 °F 62% 30.49 in 10.0 mi NW 18.4 mph - N/A   Mostly Cloudy
10:53 AM 36.0 °F 24.4 °F 23.0 °F 59% 30.51 in 10.0 mi NNW 23.0 mph 27.6 mph N/A   Mostly Cloudy
11:53 AM 37.0 °F 26.4 °F 23.0 °F 57% 30.51 in 10.0 mi NNW 20.7 mph 27.6 mph N/A   Mostly Cloudy
12:53 PM 37.0 °F 26.4 °F 26.1 °F 65% 30.50 in 10.0 mi NNW 20.7 mph 28.8 mph 0.00 in   Mostly Cloudy
1:53 PM 37.9 °F 28.5 °F 26.1 °F 62% 30.48 in 10.0 mi NNW 17.3 mph - N/A   Mostly Cloudy
2:53 PM 37.9 °F 28.2 °F 24.1 °F 57% 30.48 in 10.0 mi NNW 18.4 mph - N/A   Mostly Cloudy
3:53 PM 37.0 °F 27.4 °F 25.0 °F 62% 30.48 in 10.0 mi NNW 17.3 mph 26.5 mph N/A   Mostly Cloudy
4:53 PM 37.0 °F 27.0 °F 24.1 °F 59% 30.48 in 10.0 mi NNW 18.4 mph - N/A   Overcast
5:53 PM 37.0 °F 28.1 °F 26.1 °F 65% 30.49 in 10.0 mi NNW 15.0 mph - N/A   Overcast
6:53 PM 36.0 °F 26.7 °F 25.0 °F 64% 30.48 in 10.0 mi NNW 15.0 mph - N/A   Overcast
7:53 PM 36.0 °F 26.7 °F 25.0 °F 64% 30.48 in 10.0 mi NNW 15.0 mph - N/A   Overcast
8:53 PM 36.0 °F 27.1 °F 27.0 °F 70% 30.47 in 10.0 mi NW 13.8 mph - N/A   Overcast
9:53 PM 35.1 °F 27.4 °F 26.1 °F 70% 30.48 in 10.0 mi NW 10.4 mph - N/A   Mostly Cloudy
10:53 PM 33.1 °F 26.9 °F 26.1 °F 75% 30.46 in 10.0 mi NW 6.9 mph - N/A   Partly Cloudy
11:53 PM 30.9 °F 22.8 °F 25.0 °F 79% 30.46 in 10.0 mi WNW 9.2 mph - N/A   Clear